Flag for Finland Weather past 2 weeks in Vaasa, Finland

Now
68 °F

Mild.


Feels Like: 68 °F
Forecast: 54 / 59 °F
Wind: 9 mph from Northwest

Location: Vaasa Airport

Current Time: Jul 4, 2015 at 10:20:52 AM

Latest Report: Jul 4, 2015 at 9:50 AM


Visibility: N/A

Pressure: 30.01 "Hg

Humidity: 69%

Dew point: 57 °F

Location of VaasaLocation

Historic Weather in Vaasa — Graph

°F

Vaasa temperature yesterday

Maximum temperature yesterday: 79 °F (at 5:50 PM)
Minimum temperature yesterday: 61 °F (at 3:50 AM)
Average temperature yesterday: 70 °F

Past Weeks' High & Low Weather Summary

 TemperatureHumidityPressure
High79 °F (Jul 3, 5:50 PM)100% (Jun 21, 5:20 AM)30.27 "Hg (Jun 21, 5:20 AM)
Low43 °F (Jun 28, 3:50 AM)39% (Jul 3, 4:20 PM)29.47 "Hg (Jun 24, 8:50 PM)
Average58 °F78%29.86 "Hg
* Reported Jun 19 8:20 AM — Jul 4 8:50 AM, Vaasa, Weather by CustomWeather, © 2015

Note: Actual official high and low records may vary slightly from our data, if they occured in-between our weather recording intervals... More about our weather records

Advertising

Vaasa weather history for previous 24 hours

 ConditionsComfort  
Time TempWeatherWind HumidityBarometerVisibility
8:50 AM
Sat, Jul 4
66 °FMild.10 mph73%30.01 "HgN/A
8:20 AM66 °FMild.8 mph73%30.01 "HgN/A
7:50 AM66 °FMild.8 mph73%30.01 "HgN/A
7:20 AM64 °FMild.8 mph78%30.01 "HgN/A
6:50 AM64 °FMild.10 mph78%30.01 "HgN/A
6:20 AM64 °FMild.10 mph78%30.01 "HgN/A
5:50 AM63 °FMild.5 mph83%30.01 "HgN/A
5:20 AM61 °FCool.3 mph88%30.01 "HgN/A
4:50 AM61 °FCool.5 mph88%30.01 "HgN/A
4:20 AM59 °FCool.5 mph88%30.01 "HgN/A
3:50 AM59 °FCool.3 mph88%30.01 "HgN/A
3:20 AM59 °FCool.3 mph94%30.01 "HgN/A
2:50 AM61 °FCool.2 mph83%30.01 "HgN/A
2:20 AM61 °FCool.3 mph83%30.01 "HgN/A
1:50 AM63 °FMild.5 mph77%30.01 "HgN/A
1:20 AM63 °FMild.7 mph77%29.98 "HgN/A
12:50 AM64 °FMild.5 mph73%29.98 "HgN/A
12:20 AM64 °FMild.5 mph73%29.95 "HgN/A
11:50 PM
Fri, Jul 3
66 °FMild.7 mph68%29.95 "HgN/A
11:20 PM70 °FMild.10 mph57%29.95 "HgN/A
10:50 PM70 °FMild.8 mph57%29.95 "HgN/A
10:20 PM70 °FMild.10 mph57%29.92 "HgN/A
9:50 PM70 °FMild.9 mph60%29.95 "HgN/A
9:20 PM72 °FMild.8 mph57%29.95 "HgN/A
8:50 PM73 °FMild.14 mph50%29.95 "HgN/A
8:20 PM75 °FMild.12 mph47%29.98 "HgN/A
7:50 PM75 °FMild.12 mph47%29.98 "HgN/A
7:20 PM77 °FWarm.13 mph44%29.98 "HgN/A
6:50 PM79 °FWarm.13 mph42%29.98 "HgN/A
6:20 PM79 °FWarm.13 mph42%30.01 "HgN/A
5:50 PM79 °FPleasantly warm.15 mph39%30.01 "HgN/A
5:20 PM77 °FWarm.13 mph44%30.01 "HgN/A
4:50 PM77 °FWarm.14 mph42%30.04 "HgN/A
4:20 PM77 °FPleasantly warm.17 mph39%30.04 "HgN/A
3:50 PM77 °FWarm.13 mph42%30.04 "HgN/A
3:20 PM75 °FMild.9 mph47%30.04 "HgN/A
2:50 PM75 °FMild.12 mph47%30.07 "HgN/A
2:20 PM75 °FMild.9 mph54%30.07 "HgN/A
1:50 PM73 °FMild.9 mph53%30.07 "HgN/A
1:20 PM73 °FMild.7 mph50%30.07 "HgN/A
12:50 PM72 °FMild.9 mph57%30.07 "HgN/A
12:20 PM72 °FMild.12 mph50%30.07 "HgN/A
11:50 AM72 °FMild.12 mph53%30.07 "HgN/A
11:20 AM72 °FMild.13 mph53%30.07 "HgN/A
10:50 AM70 °FMild.10 mph57%30.07 "HgN/A
10:20 AM70 °FMild.13 mph57%30.07 "HgN/A
Weather by CustomWeather, © 2015

See weather overviewHow to use our weather pages